Home > Weather > Nijmegen > Past weeks

Flag for Netherlands Weather for the Past 2 Weeks in Nijmegen, Netherlands

Now
45 °F

Partly cloudy.


Feels Like: 41 °F
Forecast: 39 / 56 °F
Wind: 6 mph from South

Location: Volkel

Current Time: Apr 30, 2016 at 2:42:14 AM

Latest Report: Apr 30, 2016 at 1:55 AM


Visibility: N/A

Pressure: 29.98 "Hg

Humidity: 93%

Dew Point: 43 °F

Location of NijmegenLocation

Historic Weather in Nijmegen — Graph

°F

Nijmegen Temperature Yesterday

Maximum temperature yesterday: 50 °F (at 1:25 PM)
Minimum temperature yesterday: 39 °F (at 12:25 AM)
Average temperature yesterday: 45 °F

High & Low Weather Summary for the Past Weeks

 TemperatureHumidityPressure
High64 °F (Apr 21, 3:57 PM)100% (Apr 15, 4:55 AM)30.48 "Hg (Apr 15, 4:55 AM)
Low30 °F (Apr 18, 6:55 AM)41% (Apr 20, 5:55 PM)29.42 "Hg (Apr 16, 4:55 AM)
Average46 °F75%29.92 "Hg
* Reported Apr 15 12:25 AM — Apr 30 12:55 AM, Nijmegen, Weather by CustomWeather, © 2016

Note: Actual official high and low records may vary slightly from our data, if they occured in-between our weather recording intervals... More about our weather records

Advertising

Nijmegen Weather History for the Previous 24 Hours

Scroll right to see more
 ConditionsComfort  
Time TempWeatherWind HumidityBarometerVisibility
12:55 AM
Sat, Apr 30
46 °FPartly cloudy.9 mph87%29.95 "HgN/A
12:25 AM46 °FPartly cloudy.8 mph87%29.95 "HgN/A
11:55 PM
Fri, Apr 29
46 °FMostly cloudy.8 mph87%29.95 "HgN/A
11:25 PM45 °FPartly cloudy.8 mph93%29.95 "HgN/A
10:55 PM46 °FMostly cloudy.8 mph87%29.95 "HgN/A
10:25 PM45 °FPartly cloudy.8 mph93%29.95 "HgN/A
9:55 PM46 °FPartly sunny.8 mph87%29.95 "HgN/A
9:25 PM46 °FBroken clouds.9 mph87%29.95 "HgN/A
8:55 PM46 °FPartly sunny.10 mph82%29.95 "HgN/A
8:25 PM48 °FOvercast.12 mph76%29.92 "HgN/A
7:55 PM48 °FMore clouds than sun.13 mph76%29.92 "HgN/A
7:25 PM50 °FPartly sunny.12 mph71%29.92 "HgN/A
6:55 PM50 °FOvercast.13 mph71%29.92 "HgN/A
6:25 PM48 °FPassing clouds.14 mph76%29.92 "HgN/A
5:55 PM48 °FDrizzle. More clouds than sun.16 mph82%29.92 "HgN/A
5:25 PM48 °FDrizzle. Broken clouds.15 mph82%29.92 "HgN/A
4:55 PM50 °FPartly sunny.15 mph71%29.92 "HgN/A
4:25 PM50 °FBroken clouds.17 mph71%29.92 "HgN/A
3:55 PM50 °FDrizzle. Broken clouds.17 mph71%29.92 "HgN/A
3:25 PM50 °FCloudy.15 mph67%29.92 "HgN/A
2:55 PM50 °FBroken clouds.16 mph67%29.92 "HgN/A
2:25 PM50 °FPartly sunny.15 mph67%29.92 "HgN/A
1:55 PM48 °FLight rain. Partly sunny.17 mph71%29.89 "HgN/A
1:25 PM50 °FBroken clouds.17 mph71%29.89 "HgN/A
1:01 PM48 °FOvercast.15 mph76%29.89 "HgN/A
12:55 PM48 °FOvercast.15 mph76%29.89 "HgN/A
12:25 PM46 °FPartly sunny.14 mph82%29.92 "HgN/A
12:01 PM46 °FLight rain. Partly sunny.16 mph82%29.92 "HgN/A
12:00 PM46 °FDrizzle. Broken clouds.16 mph82%29.92 "HgN/A
11:25 AM46 °FBroken clouds.16 mph87%29.89 "HgN/A
10:55 AM45 °FLight rain. Partly sunny.16 mph87%29.89 "HgN/A
10:25 AM46 °FDrizzle. Mostly cloudy.18 mph82%29.89 "HgN/A
9:55 AM45 °FDrizzle. Mostly cloudy.18 mph81%29.89 "HgN/A
9:25 AM46 °FOvercast.16 mph71%29.86 "HgN/A
8:59 AM45 °FMostly cloudy.18 mph76%29.86 "HgN/A
8:25 AM45 °FPartly sunny.14 mph76%29.86 "HgN/A
7:55 AM45 °FMostly cloudy.13 mph71%29.86 "HgN/A
7:25 AM43 °FPartly sunny.13 mph71%29.86 "HgN/A
6:55 AM41 °FPassing clouds.13 mph76%29.86 "HgN/A
6:25 AM39 °FPassing clouds.14 mph81%29.86 "HgN/A
5:55 AM41 °FPassing clouds.14 mph76%29.86 "HgN/A
5:25 AM39 °FPassing clouds.12 mph81%29.86 "HgN/A
4:25 AM41 °FOvercast.10 mph76%29.89 "HgN/A
3:55 AM41 °FMostly cloudy.10 mph76%29.89 "HgN/A
3:25 AM41 °FOvercast.9 mph76%29.89 "HgN/A
2:55 AM41 °FMostly cloudy.9 mph76%29.89 "HgN/A
2:25 AM41 °FOvercast.9 mph81%29.92 "HgN/A
Weather by CustomWeather, © 2016

See weather overviewHow to use our weather pages